YAOGAN-27

Last updated on Thu Oct 30 2025 00:02:31 GMT+0000 (Coordinated Universal Time)

1 40878U 15040A 25302.53253968 -.00000010 00000+0 85700-4 0 9995 2 40878 100.0990 294.1549 0008600 30.9125 329.2494 13.16057174487328
UTC large
Height (km)
Speed (km/s)
/
Latitude / Longitude
Inclination (degrees)
Orbital Period (minutes)
Azimuth
Elevation
Range (km)
Doppler Factor

Next 0 passes for location: London (51.5072 / 0.1276)

Sorry there are no passes over London.